Wind_Speed
33 33 31 29 28 28 23 21 20 17 15 14 14 14 12 12 12 12 13 12 11 11 11 11 13 13 16 15 15 17 16 13 13 12 15 13 15 14 12 12 12 10 9
32 33 30 27 27 26 23 21 19 18 15 14 14 14 13 13 13 13 12 13 14 14 13 13 14 13 15 15 13 13 13 14 11 11 10 11 14 15 14 11 10 14 12
26 30 30 27 27 25 22 19 18 17 15 14 15 15 12 13 14 14 13 13 13 13 13 13 13 14 16 16 16 17 14 15 14 13 12 11 11 15 16 12 12 15 14
6 6 21 25 25 23 21 19 18 16 15 15 14 16 15 14 15 15 15 15 14 13 14 13 12 12 13 14 15 13 13 13 15 15 13 14 12 15 15 13 17 18 15
11 41 17 17 18 19 20 19 17 16 14 14 14 15 16 14 14 16 16 16 16 15 15 15 15 13 13 12 12 12 12 11 10 12 14 18 18 17 19 18 18 20 19
11 8 12 17 18 18 16 18 18 15 15 15 14 15 17 15 16 21 20 16 17 16 15 15 14 17 16 12 14 13 12 10 11 11 12 12 15 17 18 18 21 23 18
20 23 26 20 18 17 19 22 18 13 11 15 15 14 18 18 20 22 19 21 17 17 17 16 14 13 16 12 13 15 13 13 13 12 12 10 10 11 12 13 17 20 14
12 18 20 20 18 17 20 19 18 20 24 20 22 20 21 20 22 23 19 23 22 20 20 18 16 14 15 13 13 11 12 13 12 11 9 7 8 9 8 8 12 21 19
12 16 14 15 14 20 22 24 24 23 23 14 19 24 23 24 24 21 21 26 25 24 22 21 19 16 16 16 15 14 12 11 13 14 12 12 11 10 8 11 14 17 19
11 10 11 14 15 18 16 17 17 24 21 24 28 31 28 28 27 25 18 25 25 26 25 25 26 21 21 18 18 16 14 13 13 14 14 12 12 9 10 11 12 14 16
7 8 10 14 15 14 16 22 25 31 35 38 34 28 27 29 30 28 28 26 24 24 25 26 25 24 25 21 21 18 15 14 14 13 12 9 9 11 11 10 10 13 15
2 1 5 8 10 11 14 15 16 19 23 25 26 28 30 33 35 34 35 31 31 29 30 28 28 28 24 24 24 21 18 16 13 15 14 13 12 11 12 12 12 14 13
8 5 4 7 11 10 10 12 13 15 16 17 17 20 20 20 22 26 30 35 37 39 33 30 29 29 26 25 28 23 18 16 16 15 14 14 14 12 12 12 11 11 11
12 12 8 7 6 10 13 12 10 12 13 15 16 18 19 20 21 21 23 27 27 31 33 36 33 33 29 27 29 25 19 16 15 15 14 14 13 14 15 14 12 12 10
10 9 9 9 10 11 9 10 14 15 18 19 20 17 15 15 14 20 20 24 24 25 31 35 32 32 31 28 25 25 19 19 17 15 14 13 13 12 10 11 9 10 10
9 9 11 11 12 10 14 13 10 12 13 17 20 22 20 20 16 16 17 20 21 21 28 33 34 36 33 26 27 22 20 19 17 16 15 13 12 11 12 11 11 10 10
11 10 10 10 12 13 13 15 17 16 15 15 16 19 23 22 20 18 18 19 18 21 27 28 36 32 31 30 27 23 22 22 21 19 17 19 15 12 17 11 10 12 13
13 13 10 10 10 13 13 13 13 13 13 14 17 19 21 24 21 18 14 12 16 21 29 32 32 29 29 26 24 23 21 22 19 17 17 14 15 15 16 15 15 13 12
13 11 11 9 8 12 11 11 9 9 9 13 15 12 13 17 19 17 20 18 23 30 30 29 31 30 26 24 23 20 16 17 16 11 11 11 12 13 12 13 13 12 12
12 15 13 8 9 9 9 7 6 5 3 9 12 16 12 4 13 17 21 23 27 24 28 29 26 23 21 20 17 22 17 15 12 10 10 8 9 9 10 11 12 12 11
11 11 12 7 8 9 9 9 5 6 8 8 7 7 12 11 4 4 9 10 21 18 24 30 24 23 22 16 15 15 16 13 14 14 15 17 13 13 13 12 12 10 9
11 10 8 8 10 9 9 9 5 7 5 5 3 4 4 7 10 13 19 20 20 19 17 19 21 18 16 15 14 12 14 15 14 14 13 11 10 10 10 10 11 10 10
11 11 10 9 9 9 7 5 7 5 3 4 2 1 3 3 3 10 18 18 19 22 22 22 22 22 16 10 9 13 17 17 15 14 14 13 13 12 12 12 11 11 11
11 11 9 10 7 5 6 3 3 5 4 3 2 5 1 5 7 9 12 18 14 17 13 13 14 16 18 20 21 20 19 17 16 15 14 12 11 13 11 11 10 11 9
10 9 9 9 9 8 7 2 2 7 5 3 4 5 4 3 7 12 17 20 17 18 17 17 17 16 16 17 17 16 15 16 17 15 13 13 12 12 10 10 9 9 9
7 9 8 8 9 9 5 3 1 4 5 3 3 3 5 9 9 17 22 22 20 19 17 15 15 16 16 15 15 15 15 15 15 16 12 11 12 11 11 10 10 7 7
Wind_Direction
195 198 201 207 207 208 205 209 210 211 214 220 226 229 231 228 224 228 235 241 253 246 240 242 240 232 232 245 251 256 246 249 244 247 239 239 239 243 239 226 226 246 239
199 194 198 206 206 205 202 206 209 216 213 217 218 227 236 236 235 234 235 242 244 245 247 248 250 245 246 238 241 250 238 244 243 251 245 246 243 240 230 228 240 241 235
239 189 186 200 206 203 205 205 204 212 214 218 222 227 226 233 241 241 237 241 243 241 238 234 240 247 246 243 246 245 251 250 245 242 244 242 234 230 223 226 240 228 229
85 183 184 205 207 201 202 202 211 213 217 222 225 236 230 230 242 248 245 238 237 244 243 240 239 238 246 250 248 248 250 251 250 237 236 246 240 234 231 237 233 226 222
279 277 213 211 213 200 201 205 207 216 222 226 226 237 242 229 238 246 245 243 235 235 239 247 251 237 235 242 233 242 253 256 250 255 259 251 249 247 240 239 234 223 216
252 252 227 215 218 209 205 210 202 213 227 234 232 233 237 238 242 247 240 241 242 240 238 240 241 258 250 250 235 243 256 250 244 246 252 251 258 250 240 235 227 211 209
161 205 209 213 245 239 226 223 216 215 249 256 243 239 242 242 246 255 257 241 240 239 237 236 239 255 256 248 240 239 251 255 248 231 244 248 241 246 237 230 223 214 232
208 216 211 197 209 225 222 225 237 246 272 248 248 249 249 248 253 263 253 247 239 241 239 240 239 234 248 233 233 233 232 246 236 228 242 257 243 236 225 232 229 206 208
210 219 230 215 220 224 229 249 257 257 249 260 258 263 259 255 253 253 243 245 241 243 243 240 240 242 239 236 225 228 226 228 232 221 233 247 246 244 243 225 210 214 213
185 180 209 224 223 239 248 258 247 255 266 264 274 275 265 263 253 251 252 236 241 244 248 243 240 238 233 232 226 222 224 225 208 222 227 243 230 216 226 216 204 201 208
200 214 239 252 262 267 252 250 244 256 263 270 269 265 265 267 268 260 260 244 239 250 248 244 236 240 237 233 221 213 217 216 212 210 195 196 202 204 203 199 200 199 208
60 229 243 261 271 270 262 262 263 265 264 265 267 265 263 263 264 265 264 248 247 248 254 245 237 235 231 224 216 214 209 207 202 211 184 192 197 188 184 197 200 201 207
41 13 323 292 280 279 283 275 275 278 276 276 270 273 269 260 263 268 267 261 256 252 247 240 233 229 226 212 208 213 206 202 208 204 203 200 196 192 183 182 191 193 198
18 10 8 357 317 279 258 252 259 260 261 259 267 268 268 261 255 252 257 264 258 247 230 226 231 228 210 202 203 204 201 201 214 207 213 209 196 195 190 181 181 184 191
0 360 353 346 349 347 319 292 277 272 272 269 277 274 269 268 263 247 251 258 248 246 229 220 223 206 191 196 196 199 193 199 205 211 217 207 198 202 206 201 187 191 203
353 344 332 343 345 331 338 326 306 295 279 270 263 261 260 265 268 249 259 260 246 237 223 219 213 194 190 194 193 186 190 195 197 202 202 204 202 202 206 197 196 200 205
332 328 316 329 325 329 328 332 335 319 302 288 279 267 261 258 257 260 266 262 228 209 207 219 195 189 190 195 186 186 191 189 195 201 210 204 199 208 215 220 203 198 199
324 327 320 305 313 318 317 326 331 324 320 313 302 283 272 262 253 247 243 231 194 204 198 192 194 186 188 188 188 192 197 201 201 208 207 203 208 215 208 208 217 206 197
320 310 298 297 300 312 318 325 328 330 348 358 348 318 288 269 247 225 208 210 193 197 198 201 199 193 187 193 193 198 209 189 183 180 201 208 199 191 188 186 182 187 183
316 315 323 307 298 306 307 320 327 326 4 12 16 23 3 276 209 211 204 206 207 207 205 196 182 183 177 202 214 182 165 165 164 174 174 172 166 168 171 166 160 160 162
318 315 314 319 296 293 301 301 313 335 325 335 328 7 25 49 85 171 210 227 209 195 181 174 176 177 164 152 154 156 151 154 161 163 170 166 165 170 171 157 161 162 176
331 325 323 317 307 300 297 299 296 307 324 315 345 36 77 128 126 130 126 122 120 117 128 136 133 140 146 149 157 158 159 162 167 172 168 169 171 171 162 160 161 166 169
342 337 330 324 312 305 304 308 307 304 295 274 269 99 134 176 140 117 130 140 135 140 139 136 132 137 140 151 160 184 180 167 167 171 170 168 165 161 160 164 165 164 167
348 345 339 324 327 338 349 337 308 260 201 210 42 85 141 191 150 145 166 153 147 144 145 154 168 169 173 176 174 172 178 182 178 169 165 163 171 161 166 167 169 173 167
354 357 4 354 358 360 357 8 59 157 180 153 128 127 90 102 184 177 182 160 164 168 175 174 177 177 179 179 186 191 189 185 175 169 163 172 171 170 173 170 172 169 174
344 347 356 10 20 23 13 12 40 197 206 210 218 253 244 181 162 149 150 160 166 158 161 170 175 177 175 176 174 172 177 177 174 173 166 174 170 175 176 177 177 182 187
Height
1459 1461 1466 1472 1477 1480 1484 1490 1492 1495 1498 1503 1506 1509 1511 1511 1511 1512 1513 1513 1512 1513 1515 1516 1517 1518 1520 1521 1522 1521 1521 1520 1520 1518 1517 1518 1519 1520 1522 1523 1523 1524 1525
1454 1455 1464 1472 1475 1477 1480 1483 1488 1492 1495 1497 1500 1505 1508 1511 1511 1510 1511 1513 1510 1510 1511 1513 1516 1517 1517 1518 1520 1518 1519 1519 1519 1518 1518 1517 1517 1517 1518 1519 1521 1522 1523
1450 1456 1452 1466 1472 1474 1479 1481 1484 1487 1492 1494 1497 1500 1502 1506 1509 1510 1510 1512 1512 1512 1511 1511 1511 1513 1514 1515 1515 1514 1515 1515 1514 1516 1515 1514 1514 1514 1515 1516 1517 1518 1520
1438 1441 1454 1467 1473 1471 1475 1478 1481 1482 1487 1490 1493 1497 1497 1500 1505 1507 1507 1507 1508 1510 1510 1509 1508 1507 1508 1510 1511 1512 1511 1512 1511 1512 1513 1511 1511 1511 1512 1513 1515 1516 1517
1430 1441 1469 1475 1477 1472 1471 1474 1477 1480 1483 1486 1488 1492 1496 1495 1498 1502 1504 1505 1504 1504 1506 1507 1506 1505 1504 1504 1507 1507 1508 1508 1509 1508 1508 1508 1508 1508 1508 1510 1512 1513 1515
1452 1465 1469 1471 1473 1471 1468 1473 1471 1474 1479 1480 1482 1485 1490 1491 1493 1494 1498 1501 1501 1501 1501 1503 1504 1503 1501 1501 1501 1502 1504 1503 1505 1506 1507 1506 1505 1505 1505 1506 1508 1510 1512
1446 1456 1454 1458 1466 1465 1467 1470 1469 1470 1474 1476 1475 1478 1482 1484 1486 1488 1491 1493 1496 1496 1497 1498 1499 1501 1499 1499 1497 1497 1499 1499 1499 1499 1501 1502 1502 1501 1501 1503 1504 1508 1510
1450 1458 1460 1454 1461 1465 1463 1465 1466 1467 1470 1470 1469 1472 1475 1477 1479 1482 1484 1486 1489 1490 1491 1491 1492 1494 1494 1495 1495 1494 1494 1494 1496 1497 1498 1499 1499 1499 1500 1501 1503 1505 1508
1451 1453 1454 1452 1455 1459 1459 1459 1459 1460 1464 1461 1463 1466 1468 1470 1472 1477 1477 1479 1481 1482 1483 1484 1485 1486 1488 1489 1491 1491 1491 1492 1492 1493 1494 1495 1496 1497 1498 1499 1500 1502 1505
1449 1447 1453 1454 1454 1456 1454 1452 1455 1452 1455 1455 1456 1457 1459 1462 1464 1465 1469 1470 1473 1474 1474 1475 1477 1479 1479 1481 1484 1486 1487 1488 1490 1489 1490 1491 1493 1493 1495 1496 1496 1500 1502
1446 1448 1450 1452 1450 1450 1449 1450 1449 1448 1449 1450 1450 1451 1452 1453 1455 1457 1460 1461 1464 1466 1466 1467 1468 1470 1473 1476 1477 1479 1481 1485 1486 1487 1488 1489 1490 1489 1490 1493 1495 1496 1499
1445 1444 1446 1448 1450 1447 1445 1444 1444 1443 1443 1443 1445 1444 1445 1445 1446 1448 1448 1451 1453 1456 1457 1460 1461 1461 1465 1469 1473 1473 1474 1480 1483 1483 1482 1485 1487 1488 1487 1489 1490 1494 1496
1446 1445 1445 1445 1446 1442 1439 1439 1439 1441 1439 1439 1440 1440 1440 1440 1440 1438 1437 1439 1442 1444 1448 1452 1453 1455 1458 1462 1465 1470 1471 1476 1479 1481 1482 1482 1483 1485 1484 1485 1487 1490 1492
1446 1444 1443 1442 1441 1439 1437 1438 1439 1439 1437 1435 1436 1436 1435 1434 1433 1433 1431 1426 1428 1430 1435 1440 1443 1447 1451 1455 1460 1463 1468 1473 1475 1476 1479 1479 1481 1482 1482 1483 1485 1488 1490
1446 1446 1447 1445 1440 1439 1435 1434 1432 1430 1430 1430 1431 1430 1427 1425 1425 1424 1423 1420 1419 1422 1427 1430 1435 1438 1444 1448 1454 1456 1463 1467 1472 1474 1475 1475 1478 1480 1480 1482 1483 1485 1488
1447 1446 1445 1444 1441 1438 1434 1432 1428 1427 1425 1425 1425 1422 1420 1417 1418 1417 1415 1414 1412 1416 1419 1424 1429 1431 1435 1445 1449 1453 1458 1462 1466 1469 1471 1475 1475 1478 1481 1481 1482 1483 1485
1445 1444 1444 1442 1439 1437 1434 1430 1424 1422 1420 1419 1418 1415 1413 1412 1411 1411 1409 1407 1404 1407 1411 1420 1423 1426 1431 1436 1443 1449 1453 1455 1458 1463 1467 1468 1471 1473 1475 1477 1479 1481 1481
1443 1441 1440 1440 1438 1436 1432 1428 1424 1422 1420 1416 1413 1410 1407 1405 1405 1405 1406 1405 1404 1406 1408 1415 1420 1424 1429 1432 1438 1444 1448 1453 1457 1460 1464 1465 1467 1469 1471 1473 1474 1477 1478
1443 1442 1439 1436 1434 1432 1429 1426 1423 1422 1418 1415 1410 1404 1401 1399 1398 1400 1401 1402 1403 1405 1407 1413 1418 1421 1424 1430 1434 1439 1444 1449 1454 1457 1462 1464 1466 1468 1471 1471 1473 1475 1477
1443 1437 1432 1432 1432 1431 1429 1426 1423 1421 1419 1417 1413 1407 1400 1396 1397 1398 1398 1398 1403 1404 1404 1408 1415 1420 1423 1429 1434 1438 1442 1447 1452 1457 1460 1463 1467 1469 1471 1472 1473 1476 1478
1440 1436 1432 1431 1430 1428 1427 1424 1421 1419 1417 1416 1415 1407 1403 1398 1398 1398 1400 1399 1401 1403 1403 1408 1412 1419 1423 1427 1433 1439 1442 1445 1451 1456 1460 1463 1467 1468 1468 1470 1471 1474 1477
1437 1435 1431 1429 1429 1426 1423 1421 1420 1418 1417 1416 1414 1409 1409 1408 1407 1407 1403 1404 1404 1405 1410 1413 1415 1420 1426 1429 1436 1439 1442 1446 1451 1457 1460 1465 1468 1468 1469 1470 1472 1474 1476
1434 1431 1430 1428 1427 1424 1422 1419 1419 1417 1415 1417 1414 1412 1411 1412 1409 1410 1410 1411 1410 1410 1412 1413 1418 1424 1427 1432 1436 1441 1444 1446 1451 1457 1461 1463 1465 1465 1468 1470 1472 1472 1475
1433 1431 1430 1428 1425 1424 1418 1417 1418 1416 1417 1417 1415 1412 1411 1411 1411 1412 1415 1417 1417 1417 1419 1421 1426 1429 1431 1434 1436 1440 1443 1446 1449 1455 1458 1461 1464 1465 1467 1469 1471 1471 1472
1436 1434 1431 1429 1425 1422 1421 1418 1418 1419 1419 1418 1417 1416 1416 1414 1414 1415 1416 1418 1419 1419 1421 1424 1427 1429 1432 1434 1436 1440 1444 1446 1449 1453 1458 1460 1462 1464 1466 1467 1468 1470 1470
1437 1435 1433 1430 1427 1426 1425 1424 1421 1421 1419 1418 1418 1418 1417 1417 1418 1417 1417 1421 1421 1422 1425 1428 1430 1431 1434 1436 1437 1439 1444 1447 1448 1451 1455 1459 1460 1463 1465 1465 1466 1467 1468